TimeCDT,TemperatureF,Dew PointF,Humidity,Sea Level PressureIn,VisibilityMPH,Wind Direction,Wind SpeedMPH,Gust SpeedMPH,PrecipitationIn,Events,Conditions,WindDirDegrees,DateUTC
12:35 AM,26.2,12.9,57,30.03,10.0,ESE,8.1,-,N/A,,Mostly Cloudy,110,2013-03-21 05:35:00
1:15 AM,26.2,12.2,55,30.02,10.0,ESE,9.2,-,N/A,,Mostly Cloudy,110,2013-03-21 06:15:00
1:35 AM,25.7,12.2,57,30.02,10.0,ESE,9.2,-,N/A,,Scattered Clouds,120,2013-03-21 06:35:00
1:55 AM,25.7,12.6,58,30.01,10.0,ESE,8.1,-,N/A,,Scattered Clouds,120,2013-03-21 06:55:00
2:15 AM,25.7,12.4,57,30.01,10.0,East,9.2,-,N/A,,Mostly Cloudy,100,2013-03-21 07:15:00
2:35 AM,25.7,13.3,59,30.01,10.0,ESE,8.1,-,N/A,,Overcast,120,2013-03-21 07:35:00
2:55 AM,25.7,13.1,59,30.01,10.0,SE,11.5,-,N/A,,Overcast,130,2013-03-21 07:55:00
3:15 AM,25.9,12.9,58,30.00,10.0,ESE,15.0,-,N/A,,Overcast,120,2013-03-21 08:15:00
3:35 AM,25.7,13.1,59,29.99,10.0,ESE,11.5,-,N/A,,Overcast,120,2013-03-21 08:35:00
3:55 AM,25.7,13.5,60,29.98,10.0,ESE,12.7,-,N/A,,Overcast,120,2013-03-21 08:55:00
4:15 AM,25.7,13.6,60,29.97,10.0,ESE,11.5,-,N/A,,Overcast,120,2013-03-21 09:15:00
4:35 AM,25.7,13.6,60,29.97,10.0,ESE,11.5,-,N/A,,Overcast,120,2013-03-21 09:35:00
4:55 AM,25.7,13.6,60,29.96,10.0,ESE,12.7,-,N/A,,Overcast,120,2013-03-21 09:55:00
5:15 AM,25.7,13.3,59,29.96,10.0,ESE,11.5,-,N/A,,Overcast,120,2013-03-21 10:15:00
5:35 AM,25.7,13.5,60,29.95,10.0,ESE,11.5,-,N/A,,Overcast,120,2013-03-21 10:35:00
5:55 AM,25.7,14.0,61,29.95,10.0,ESE,11.5,-,N/A,,Overcast,120,2013-03-21 10:55:00
6:15 AM,25.7,13.8,61,29.95,10.0,ESE,12.7,-,N/A,,Overcast,120,2013-03-21 11:15:00
6:35 AM,25.7,14.0,61,29.95,10.0,ESE,10.4,-,N/A,,Overcast,120,2013-03-21 11:35:00
6:55 AM,25.3,14.7,64,29.95,7.0,SE,12.7,-,N/A,Snow,Light Snow,130,2013-03-21 11:55:00
7:15 AM,24.6,15.8,69,29.94,5.0,ESE,11.5,-,N/A,Snow,Light Snow,120,2013-03-21 12:15:00
7:35 AM,24.3,16.7,73,29.94,7.0,SE,10.4,-,N/A,Snow,Light Snow,130,2013-03-21 12:35:00
7:55 AM,24.1,17.2,75,29.94,7.0,SE,12.7,-,N/A,Snow,Light Snow,130,2013-03-21 12:55:00
8:15 AM,24.1,17.6,76,29.94,10.0,SE,13.8,-,N/A,,Overcast,130,2013-03-21 13:15:00
8:35 AM,23.9,17.6,77,29.95,10.0,SE,12.7,-,N/A,Snow,Light Snow,130,2013-03-21 13:35:00
8:55 AM,23.9,18.1,79,29.94,7.0,SE,13.8,-,N/A,Snow,Light Snow,130,2013-03-21 13:55:00
9:15 AM,23.9,19.0,82,29.94,3.0,SE,11.5,-,N/A,Snow,Light Snow,130,2013-03-21 14:15:00
9:35 AM,23.9,19.2,82,29.94,3.0,SE,15.0,-,N/A,Snow,Light Snow,130,2013-03-21 14:35:00
9:55 AM,24.3,19.8,83,29.94,2.5,SE,13.8,-,N/A,Snow,Light Snow,130,2013-03-21 14:55:00
10:15 AM,24.4,19.4,81,29.94,5.0,SE,15.0,-,N/A,Snow,Light Snow,130,2013-03-21 15:15:00
10:35 AM,24.8,20.1,82,29.94,5.0,ESE,13.8,17.3,N/A,Snow,Light Snow,110,2013-03-21 15:35:00
10:55 AM,25.0,20.3,82,29.93,5.0,ESE,13.8,-,N/A,Snow,Light Snow,120,2013-03-21 15:55:00
11:35 AM,25.5,20.7,82,29.92,5.0,ESE,16.1,-,N/A,Snow,Light Snow,120,2013-03-21 16:35:00
11:55 AM,26.2,21.2,81,29.92,5.0,ESE,12.7,18.4,N/A,Snow,Light Snow,120,2013-03-21 16:55:00
12:15 PM,25.9,21.2,82,29.92,7.0,ESE,12.7,-,N/A,,Overcast,110,2013-03-21 17:15:00
12:35 PM,26.2,21.4,82,29.92,7.0,ESE,11.5,-,N/A,,Overcast,110,2013-03-21 17:35:00
12:55 PM,26.4,21.6,82,29.91,7.0,ESE,11.5,17.3,N/A,,Overcast,110,2013-03-21 17:55:00
1:15 PM,26.2,21.4,82,29.91,10.0,ESE,11.5,17.3,N/A,,Overcast,110,2013-03-21 18:15:00
1:35 PM,27.1,21.9,81,29.89,10.0,ESE,13.8,-,N/A,,Overcast,120,2013-03-21 18:35:00
1:55 PM,28.9,22.8,78,29.88,10.0,SE,15.0,-,N/A,,Overcast,130,2013-03-21 18:55:00
2:15 PM,29.3,23.0,77,29.88,10.0,ESE,15.0,21.9,N/A,,Overcast,120,2013-03-21 19:15:00
2:35 PM,29.3,23.0,77,29.87,10.0,ESE,12.7,-,N/A,,Overcast,110,2013-03-21 19:35:00
2:55 PM,29.5,23.0,77,29.87,10.0,ESE,12.7,-,N/A,,Overcast,110,2013-03-21 19:55:00
3:15 PM,30.2,23.0,75,29.86,10.0,ESE,13.8,17.3,N/A,,Overcast,120,2013-03-21 20:15:00
3:35 PM,30.0,22.6,74,29.87,10.0,SE,12.7,-,N/A,,Overcast,130,2013-03-21 20:35:00
3:55 PM,31.3,23.2,72,29.87,10.0,SE,12.7,-,N/A,,Overcast,130,2013-03-21 20:55:00
4:15 PM,31.1,23.0,72,29.86,10.0,ESE,16.1,-,N/A,,Overcast,120,2013-03-21 21:15:00
4:35 PM,32.0,23.5,71,29.86,10.0,ESE,11.5,16.1,N/A,,Overcast,120,2013-03-21 21:35:00
4:55 PM,30.9,22.6,71,29.86,10.0,East,10.4,-,N/A,,Overcast,100,2013-03-21 21:55:00
5:15 PM,30.6,21.7,70,29.86,10.0,East,12.7,-,N/A,,Overcast,100,2013-03-21 22:15:00
5:35 PM,30.6,21.6,69,29.87,10.0,ESE,11.5,17.3,N/A,,Overcast,120,2013-03-21 22:35:00
5:55 PM,30.2,21.6,70,29.88,10.0,ESE,10.4,-,N/A,,Overcast,110,2013-03-21 22:55:00
6:15 PM,29.8,21.0,70,29.88,10.0,ESE,10.4,-,N/A,,Overcast,110,2013-03-21 23:15:00
6:35 PM,29.7,21.0,70,29.88,10.0,East,10.4,-,N/A,,Overcast,100,2013-03-21 23:35:00
6:55 PM,29.3,20.5,70,29.88,10.0,ESE,11.5,-,N/A,,Overcast,120,2013-03-21 23:55:00
7:15 PM,29.3,20.1,69,29.89,10.0,East,8.1,-,N/A,,Overcast,100,2013-03-22 00:15:00
7:35 PM,28.9,19.2,67,29.89,10.0,East,10.4,-,N/A,,Overcast,100,2013-03-22 00:35:00
7:55 PM,28.4,18.7,67,29.90,10.0,East,8.1,-,N/A,,Overcast,90,2013-03-22 00:55:00
8:15 PM,28.4,18.5,66,29.90,10.0,East,9.2,-,N/A,,Overcast,100,2013-03-22 01:15:00
8:35 PM,28.4,17.6,64,29.91,10.0,East,8.1,-,N/A,,Overcast,90,2013-03-22 01:35:00
8:55 PM,28.2,17.2,63,29.92,10.0,East,9.2,-,N/A,,Overcast,100,2013-03-22 01:55:00
9:15 PM,28.4,17.6,64,29.92,10.0,East,9.2,-,N/A,,Overcast,100,2013-03-22 02:15:00
9:35 PM,28.4,17.6,64,29.92,10.0,East,8.1,-,N/A,,Overcast,100,2013-03-22 02:35:00
9:55 PM,28.4,17.6,64,29.93,10.0,East,9.2,-,N/A,,Overcast,100,2013-03-22 02:55:00
10:15 PM,28.4,16.9,62,29.94,10.0,East,9.2,-,N/A,,Overcast,100,2013-03-22 03:15:00
10:35 PM,28.4,16.5,61,29.94,10.0,East,9.2,-,N/A,,Overcast,100,2013-03-22 03:35:00
10:55 PM,28.8,16.7,61,29.94,10.0,East,8.1,-,N/A,,Overcast,100,2013-03-22 03:55:00
11:15 PM,28.8,16.3,60,29.94,10.0,ESE,10.4,-,N/A,,Overcast,110,2013-03-22 04:15:00
11:35 PM,28.6,16.7,61,29.94,7.0,ESE,8.1,-,N/A,Snow,Light Snow,110,2013-03-22 04:35:00
11:55 PM,28.4,17.4,63,29.94,7.0,ESE,9.2,-,N/A,,Overcast,110,2013-03-22 04:55:00